Regional Weather Roundup
Issued by NWS Jackson, KY

Home | Current Version | Previous Version | Text Only | Print | Product List | Glossary On
Versions: 1 2 3 4 5 6 7 8 9 10 11 12 13 14 15 16 17 18 19 20 21 22 23 24 25 26 27 28 29 30 31 32 33 34 35 36 37 38 39 40 41 42 43 44 45 46 47 48 49 50
000
ASUS43 KJKL 291019
RWRJKL

EAST KENTUCKY HOURLY WEATHER ROUNDUP
NATIONAL WEATHER SERVICE JACKSON KY
600 AM EDT FRI AUG 29 2014

NOTE: "FAIR" INDICATES FEW OR NO CLOUDS BELOW 12,000 FEET WITH
NO SIGNIFICANT WEATHER AND/OR OBSTRUCTIONS TO VISIBILITY.

* THESE REPORTS ARE NOT UNDER NWS QUALITY CONTROL AND MAY NOT
  REPORT WEATHER SUCH AS PRECIPITATION AND FOG.

KYZ079-080-083-085-087-088-110-112-115-119-120-291100
...EASTERN KENTUCKY...

CITY           SKY/WX    TMP DP  RH WIND       PRES   REMARKS
JACKSON        CLEAR     67  61  81 CALM      30.08S
LONDON         CLEAR     70  66  87 CALM      30.07R
SOMERSET*      CLEAR     70  68  94 CALM      30.07R
MONTICELLO*    CLEAR     71  70  97 CALM      30.06S FOG
WILLIAMSBURG*  CLEAR     68  68 100 CALM      30.07
MIDDLESBORO*   FOG       68  68 100 CALM      30.08S VSB 3/4
HARLAN APT*    CLOUDY    68  66  94 MISG      30.10R VSB 1/4
BLACK MTN*       N/A     66  63  88 SW1         N/A
PIKEVILLE APT* CLEAR     66  64  94 CALM      30.09S
BIG SANDY*     FOG       63  62  99 CALM      30.09R VSB 3/4
MOREHEAD APT*  MOSUNNY   66  59  77 VRB3      30.11R
ASHLAND*       CLEAR     64  57  77 CALM      30.09R
$$

KYZ035-036-041-042-044-050-067-078-099-291100
...CENTRAL KENTUCKY...

CITY           SKY/WX    TMP DP  RH WIND       PRES   REMARKS
MT STERLING*   CLEAR     68  63  83 E5        30.09R
FLEMING/MASON* CLEAR     63  59  88 E6        30.10R
DANVILLE*        N/A     64  64 100 CALM      30.07R FOG
RICHMOND*      CLEAR     66  63  88 CALM      30.06R
LEXINGTON      CLEAR     71  63  75 SE5       30.06R
FRANKFORT      CLEAR     68  64  87 E5        30.04S
$$

KYZ091>093-OHZ055-061-077-WVZ005-015-034-035-042-291100
...SOUTHERN OHIO/WEST VIRGINIA...

CITY           SKY/WX    TMP DP  RH WIND       PRES   REMARKS
COVINGTON      PTCLDY    67  60  78 E7        30.07S
COLUMBUS       PTCLDY    61  52  72 E5        30.11S
DAYTON         PTCLDY    64  57  78 E8        30.10S
WILMINGTON     PTCLDY    60  56  86 E5        30.10S
HUNTINGTON     CLEAR     63  60  90 NE3       30.09R
CHARLESTON     MOCLDY    62  62 100 NE3       30.10R FOG
PINEVILLE*     MOCLDY    63  63 100 MISG      30.18R
BECKLEY        CLEAR     61  57  87 CALM      30.16S
BLUEFIELD      CLEAR     68  59  73 SE7       30.18R
$$

VAZ002-007-008-TNZ017-027-036-066-071-291100
...SOUTHWEST VIRGINIA/EAST TENNESSEE...

CITY           SKY/WX    TMP DP  RH WIND       PRES   REMARKS
WISE*          CLEAR     64  64 100 CALM      30.16S
JONESVILLE*      N/A     64  64 100 CALM      30.11R FOG
ABINGDON*      CLEAR     67  65  95 E6        30.12S
BRISTOL        CLEAR     66  64  93 CALM      30.09S FOG
KNOXVILLE      CLEAR     71  70  96 CALM      30.04R
OAK RIDGE      PTCLDY    72  70  93 CALM      30.07R FOG
CROSSVILLE     CLEAR     83  65  54 CALM      30.10R HAZE
NASHVILLE      PTCLDY    72  71  97 S5        30.01R
$$

...KEY TO REMARKS...
VSB - VISIBILITY IN MILES
WCI - WIND CHILL INDEX
HX  - HEAT INDEX

$$


USA.gov is the U.S. government's official web portal to all federal, state and local government web resources and services.